Tracking 20040 objects as of 19-Nov-2019
Live streaming from Space Station
objects crossing your sky now

ARIANE 3 DEB

Track ARIANE 3 DEB now!
10-day predictions


NORAD ID: 27740
Int'l Code: 1984-114E
Perigee: 281.7 km
Apogee: 4,966.2 km
Inclination: 6.8 °
Period: 141.5 minutes
Semi major axis: 8994 km
RCS: 18.1115 m2 (large)
Launch date: November 10, 1984
Source: France (FR)
Launch site: FRENCH GUIANA (FRGUI)

Note: This is SATELLITE DEBRIS
aabbcc
Your satellite tracking list
Your tracking list is empty




NASA's NSSDC Master Catalog

Two Line Element Set (TLE):
1 27740U 84114E   19321.70071814 +.00025899 -53411-5 +84300-3 0  9993
2 27740 006.7551 095.0491 2603978 185.3847 319.2914 10.17667530809827
Source of the keplerian elements: AFSPC